Location: Six Mile Lake
(44.9000°N, 79.7170°W)
Time: 03:08:37
(UTC-04:00)

JY1SAT - Pass Details

Date: 06 July 2022
Orbit: 564 x 586 km, 97.6° (Epoch: 07 August)

Event Time Altitude Azimuth Distance (km) Brightness Sun altitude
Exits shadow 22:58:05 19° 182° (S) 1,403 ? -14.8°
Maximum altitude 23:00:55 63° 259° (WSW) 660 ? -15.1°
Drops below altitude 10° 23:05:03 10° 341° (NNW) 1,917 ? -15.5°
Sets 23:07:15 0° 345° (NNW) 2,819 ? -15.7°
